TimeCDT,TemperatureF,Dew PointF,Humidity,Sea Level PressureIn,VisibilityMPH,Wind Direction,Wind SpeedMPH,Gust SpeedMPH,PrecipitationIn,Events,Conditions,WindDirDegrees,DateUTC
12:15 AM,75.6,70.3,84,29.99,10.0,SSE,8.1,-,N/A,,Clear,150,2012-11-03 05:15:00
12:35 AM,75.0,70.3,85,29.99,10.0,SSE,6.9,-,N/A,,Clear,150,2012-11-03 05:35:00
12:55 AM,74.5,70.7,88,29.98,10.0,SSE,5.8,-,N/A,,Clear,160,2012-11-03 05:55:00
1:15 AM,74.3,70.7,88,29.98,10.0,SSE,6.9,-,N/A,,Clear,160,2012-11-03 06:15:00
1:35 AM,74.5,70.7,88,29.97,10.0,SSE,6.9,-,N/A,,Clear,160,2012-11-03 06:35:00
1:55 AM,74.3,70.3,87,29.97,10.0,SSE,6.9,-,N/A,,Clear,160,2012-11-03 06:55:00
2:15 AM,74.1,70.0,87,29.97,10.0,SSE,5.8,-,N/A,,Clear,150,2012-11-03 07:15:00
2:35 AM,74.1,70.2,87,29.97,10.0,SSE,6.9,-,N/A,,Clear,150,2012-11-03 07:35:00
2:55 AM,74.5,70.9,88,29.97,10.0,SSE,5.8,-,N/A,,Clear,150,2012-11-03 07:55:00
3:15 AM,74.7,70.9,88,29.97,10.0,SSE,5.8,-,N/A,,Clear,150,2012-11-03 08:15:00
3:35 AM,74.5,70.9,88,29.97,10.0,SSE,5.8,-,N/A,,Clear,160,2012-11-03 08:35:00
3:55 AM,73.9,70.5,89,29.97,10.0,SSE,5.8,-,N/A,,Clear,160,2012-11-03 08:55:00
4:15 AM,73.4,70.2,90,29.97,10.0,SSE,5.8,-,N/A,,Scattered Clouds,150,2012-11-03 09:15:00
4:35 AM,73.4,70.2,90,29.97,10.0,SSE,5.8,-,N/A,,Clear,150,2012-11-03 09:35:00
4:55 AM,73.2,70.2,90,29.98,10.0,SSE,5.8,-,N/A,,Clear,160,2012-11-03 09:55:00
5:15 AM,72.5,69.8,91,29.97,10.0,SSE,4.6,-,N/A,,Clear,150,2012-11-03 10:15:00
5:35 AM,72.0,69.6,92,29.98,10.0,SE,6.9,-,N/A,,Clear,140,2012-11-03 10:35:00
5:55 AM,71.8,69.4,92,29.99,10.0,SE,4.6,-,N/A,,Clear,140,2012-11-03 10:55:00
6:15 AM,72.0,69.8,93,29.99,10.0,SE,4.6,-,N/A,,Clear,130,2012-11-03 11:15:00
6:35 AM,72.0,69.8,93,29.99,10.0,SSE,4.6,-,N/A,,Clear,150,2012-11-03 11:35:00
6:55 AM,72.3,70.0,92,29.99,10.0,SE,4.6,-,N/A,,Clear,130,2012-11-03 11:55:00
7:15 AM,72.0,70.0,93,30.00,10.0,ESE,3.5,-,N/A,,Scattered Clouds,120,2012-11-03 12:15:00
7:35 AM,72.1,70.2,93,30.00,10.0,Calm,Calm,-,N/A,,Scattered Clouds,0,2012-11-03 12:35:00
7:55 AM,71.2,69.1,93,30.01,10.0,SE,3.5,-,N/A,,Clear,130,2012-11-03 12:55:00
8:15 AM,72.3,70.5,94,30.02,10.0,SE,3.5,-,N/A,,Scattered Clouds,130,2012-11-03 13:15:00
8:35 AM,73.4,71.4,93,30.02,10.0,ESE,3.5,-,N/A,,Scattered Clouds,110,2012-11-03 13:35:00
8:55 AM,74.8,72.7,93,30.03,10.0,SE,3.5,-,N/A,,Scattered Clouds,140,2012-11-03 13:55:00
9:15 AM,77.5,74.1,89,30.04,10.0,SSE,3.5,-,N/A,,Clear,150,2012-11-03 14:15:00
9:35 AM,80.4,72.9,78,30.04,10.0,South,8.1,-,N/A,,Clear,170,2012-11-03 14:35:00
9:55 AM,81.9,71.1,70,30.05,10.0,SSE,6.9,-,N/A,,Clear,150,2012-11-03 14:55:00
10:15 AM,82.0,69.6,66,30.05,10.0,SSE,8.1,-,N/A,,Scattered Clouds,150,2012-11-03 15:15:00
10:35 AM,82.2,68.4,63,30.05,10.0,SSE,12.7,17.3,N/A,,Scattered Clouds,160,2012-11-03 15:35:00
10:55 AM,83.5,68.0,59,30.06,10.0,SSE,12.7,19.6,N/A,,Clear,160,2012-11-03 15:55:00
11:15 AM,83.7,68.7,61,30.06,10.0,SSE,12.7,16.1,N/A,,Clear,150,2012-11-03 16:15:00
11:35 AM,84.7,66.7,55,30.05,10.0,SSE,12.7,-,N/A,,Clear,160,2012-11-03 16:35:00
11:55 AM,85.3,66.7,54,30.05,10.0,South,11.5,18.4,N/A,,Clear,170,2012-11-03 16:55:00
12:15 PM,85.8,67.3,54,30.05,10.0,South,10.4,18.4,N/A,,Clear,180,2012-11-03 17:15:00
12:35 PM,86.4,67.3,53,30.04,10.0,SSE,12.7,16.1,N/A,,Clear,150,2012-11-03 17:35:00
12:55 PM,86.2,67.6,54,30.03,10.0,SSE,13.8,19.6,N/A,,Clear,150,2012-11-03 17:55:00
1:15 PM,86.9,66.0,50,30.03,10.0,South,12.7,18.4,N/A,,Scattered Clouds,180,2012-11-03 18:15:00
1:35 PM,87.3,66.0,49,30.02,10.0,SSE,16.1,20.7,N/A,,Scattered Clouds,160,2012-11-03 18:35:00
1:55 PM,86.7,67.6,53,30.00,10.0,SSE,15.0,19.6,N/A,,Scattered Clouds,150,2012-11-03 18:55:00
2:15 PM,86.2,67.6,54,29.99,10.0,SSE,16.1,21.9,N/A,,Scattered Clouds,160,2012-11-03 19:15:00
2:35 PM,86.5,68.2,54,29.98,10.0,SE,13.8,23.0,N/A,,Clear,140,2012-11-03 19:35:00
2:55 PM,86.4,68.2,54,29.97,10.0,SSE,15.0,21.9,N/A,,Clear,150,2012-11-03 19:55:00
3:15 PM,86.4,67.8,54,29.97,10.0,SSE,16.1,20.7,N/A,,Clear,150,2012-11-03 20:15:00
3:35 PM,86.0,67.6,54,29.97,10.0,South,17.3,-,N/A,,Clear,170,2012-11-03 20:35:00
3:55 PM,86.4,67.6,53,29.96,10.0,SSE,13.8,19.6,N/A,,Clear,150,2012-11-03 20:55:00
4:15 PM,85.5,68.5,57,29.96,10.0,SE,18.4,21.9,N/A,,Clear,140,2012-11-03 21:15:00
4:35 PM,85.1,68.9,58,29.95,10.0,SSE,15.0,20.7,N/A,,Clear,150,2012-11-03 21:35:00
4:55 PM,83.8,69.1,61,29.95,10.0,SE,15.0,-,N/A,,Clear,130,2012-11-03 21:55:00
5:15 PM,81.3,70.2,69,29.96,10.0,SE,12.7,21.9,N/A,,Clear,140,2012-11-03 22:15:00
5:35 PM,81.0,70.9,71,29.96,10.0,SE,13.8,19.6,N/A,,Clear,140,2012-11-03 22:35:00
5:55 PM,81.0,70.9,71,29.96,10.0,SE,15.0,-,N/A,,Clear,140,2012-11-03 22:55:00
6:15 PM,80.4,70.7,72,29.96,10.0,SE,12.7,20.7,N/A,Thunderstorm,Clear,130,2012-11-03 23:15:00
6:35 PM,79.9,71.1,74,29.97,10.0,SE,12.7,18.4,N/A,,Clear,140,2012-11-03 23:35:00
6:55 PM,79.3,70.9,75,29.99,10.0,ESE,10.4,-,N/A,,Scattered Clouds,120,2012-11-03 23:55:00
7:15 PM,79.0,71.2,77,29.99,10.0,SE,11.5,-,N/A,Thunderstorm,Scattered Clouds,140,2012-11-04 00:15:00
7:35 PM,78.8,71.6,78,29.99,10.0,SE,11.5,-,N/A,,Scattered Clouds,140,2012-11-04 00:35:00
7:55 PM,78.8,71.6,78,29.99,10.0,SE,10.4,-,N/A,Thunderstorm,Scattered Clouds,140,2012-11-04 00:55:00
8:15 PM,78.8,71.8,79,30.00,10.0,Calm,Calm,-,N/A,Thunderstorm,Thunderstorm,0,2012-11-04 01:15:00
8:35 PM,75.7,68.0,77,30.00,10.0,NW,16.1,24.2,N/A,Rain-Thunderstorm,Light Thunderstorms and Rain,320,2012-11-04 01:35:00
8:55 PM,-9999,-9999,N/A,30.05,1.0,NNE,20.7,51.8,0.28,Rain-Thunderstorm,Heavy Thunderstorms and Rain,30,2012-11-04 01:55:00
9:15 PM,68.9,66.2,91,30.01,2.5,East,17.3,33.4,0.19,Rain-Thunderstorm,Light Thunderstorms and Rain,80,2012-11-04 02:15:00
9:35 PM,69.3,65.8,89,30.04,10.0,ESE,20.7,31.1,0.20,Rain-Thunderstorm,Thunderstorms and Rain,110,2012-11-04 02:35:00
9:55 PM,68.7,65.5,89,30.05,5.0,SSE,23.0,26.5,0.24,Rain-Thunderstorm,Thunderstorms and Rain,150,2012-11-04 02:55:00
10:15 PM,69.1,66.2,91,30.02,10.0,SSE,13.8,23.0,N/A,Rain-Thunderstorm,Light Thunderstorms and Rain,160,2012-11-04 03:15:00
10:35 PM,70.0,66.6,89,30.03,10.0,South,9.2,18.4,N/A,Thunderstorm,Scattered Clouds,190,2012-11-04 03:35:00
10:55 PM,70.3,66.9,89,30.04,10.0,SSE,10.4,16.1,N/A,Thunderstorm,Clear,150,2012-11-04 03:55:00
11:15 PM,69.1,64.8,86,30.05,10.0,SE,9.2,-,N/A,,Mostly Cloudy,140,2012-11-04 04:15:00
11:35 PM,68.9,64.4,86,30.05,10.0,SE,12.7,16.1,N/A,,Overcast,130,2012-11-04 04:35:00
11:55 PM,69.3,65.5,88,30.04,10.0,SE,5.8,-,N/A,,Mostly Cloudy,140,2012-11-04 04:55:00